Weather History for KSFQ - February, 2014

Change the Weather History Date:

Tuesday, February 25, 2014

  Actual Average Record
Temperature  
Mean Temperature 34 °F -  
Max Temperature 40 °F 52 °F 75 °F (2011)
Min Temperature 27 °F 32 °F 14 °F (1967)
Degree Days  
Heating Degree Days 32    
Moisture  
Dew Point 25 °F    
Average Humidity 70    
Maximum Humidity 93    
Minimum Humidity 45    
Precipitation  
Precipitation 0.00 in - - ()
Sea Level Pressure  
Sea Level Pressure 30.06 in    
Wind  
Wind Speed 2 mph (NE)    
Max Wind Speed 9 mph    
Max Gust Speed -    
Visibility 10 miles    
Events      
Averages and records for this station are not official NWS values.
T = Trace of Precipitation, MM = Missing Value Source: NWS Daily Summary

Daily Weather History Graph

Daily Weather History Graph

Search for Another Location

Airport or City:

Trip Planner

Search our weather history database for the weather conditions in past years. The results will help you decide how hot, cold, wet, or windy it might be!

Date:

Astronomy

Feb. 25, 2014 Rise Set
Actual Time 6:42 AM EST 5:57 PM EST
Civil Twilight 6:16 AM EST 6:23 PM EST
Nautical Twilight 5:46 AM EST 6:53 PM EST
Astronomical Twilight 5:16 AM EST 7:23 PM EST
Moon 3:30 AM EST (2/25) 2:04 PM EST (2/25)
Length of Visible Light 12h 06m
Length of Day
11h 14m
Waning Crescent, 18% of the Moon is Illuminated
Feb 25
Waning Crescent
Mar 1
New
Mar 8
First Quarter
Mar 16
Full
Mar 23
Last Quarter

Hourly Weather History & Observations

Time (EST) Temp. Windchill Dew Point Humidity Pressure Visibility Wind Dir Wind Speed Gust Speed Precip Events Conditions
12:15 AM 32.9 °F - 29.3 °F 87% 30.16 in 10.0 mi Calm Calm - N/A   Clear
12:35 AM 31.1 °F 27.7 °F 28.4 °F 90% 30.14 in 10.0 mi NE 3.5 mph - N/A   Clear
12:55 AM 32.0 °F - 29.7 °F 91% 30.15 in 10.0 mi Calm Calm - N/A   Clear
1:15 AM 31.6 °F - 28.4 °F 88% 30.16 in 10.0 mi Calm Calm - N/A   Clear
1:35 AM 30.7 °F - 27.9 °F 89% 30.16 in 10.0 mi Calm Calm - N/A   Clear
1:55 AM 29.7 °F - 27.3 °F 91% 30.15 in 10.0 mi Calm Calm - N/A   Clear
2:15 AM 30.0 °F - 28.0 °F 92% 30.15 in 10.0 mi Calm Calm - N/A   Clear
2:30 AM 29.7 °F - 27.9 °F 93% 30.13 in 10.0 mi Calm Calm - N/A   Clear
2:55 AM 29.3 °F - 27.5 °F 93% 30.13 in 10.0 mi Calm Calm - N/A   Clear
3:15 AM 28.9 °F - 27.0 °F 92% 30.13 in 10.0 mi Calm Calm - N/A   Clear
4:55 AM 30.9 °F - 24.4 °F 77% 30.11 in 10.0 mi Calm Calm - N/A   Clear
5:15 AM 30.7 °F - 24.4 °F 77% 30.11 in 10.0 mi Calm Calm - N/A   Clear
5:35 AM 30.2 °F - 23.9 °F 77% 30.11 in 10.0 mi Calm Calm - N/A   Clear
5:55 AM 29.3 °F - 24.6 °F 83% 30.11 in 10.0 mi Calm Calm - N/A   Clear
6:15 AM 28.6 °F - 24.6 °F 85% 30.11 in 10.0 mi Calm Calm - N/A   Clear
6:35 AM 28.9 °F - 23.9 °F 81% 30.11 in 10.0 mi Calm Calm - N/A   Clear
6:55 AM 28.6 °F - 24.6 °F 85% 30.11 in 10.0 mi Calm Calm - N/A   Scattered Clouds
7:15 AM 30.9 °F - 26.6 °F 84% 30.12 in 10.0 mi Calm Calm - N/A   Mostly Cloudy
7:35 AM 31.1 °F - 27.7 °F 87% 30.11 in 10.0 mi Calm Calm - N/A   Overcast
7:55 AM 32.7 °F - 26.2 °F 77% 30.11 in 10.0 mi Calm Calm - N/A   Overcast
8:15 AM 34.5 °F 31.6 °F 26.8 °F 73% 30.12 in 10.0 mi East 3.5 mph - N/A   Overcast
8:35 AM 36.0 °F 31.1 °F 26.2 °F 68% 30.11 in 10.0 mi East 5.8 mph - N/A   Overcast
8:55 AM 37.0 °F 32.4 °F 25.7 °F 64% 30.11 in 10.0 mi East 5.8 mph - N/A   Overcast
9:15 AM 37.0 °F 31.6 °F 25.0 °F 62% 30.11 in 10.0 mi East 6.9 mph - N/A   Overcast
9:35 AM 37.2 °F 31.9 °F 25.5 °F 63% 30.10 in 10.0 mi East 6.9 mph - N/A   Overcast
9:55 AM 37.8 °F 31.8 °F 25.2 °F 60% 30.08 in 10.0 mi East 8.1 mph - N/A   Overcast
10:15 AM 38.5 °F 33.4 °F 25.2 °F 59% 30.07 in 10.0 mi ENE 6.9 mph - N/A   Overcast
10:35 AM 39.2 °F 34.2 °F 25.0 °F 57% 30.07 in 10.0 mi ENE 6.9 mph - N/A   Overcast
10:55 AM 39.6 °F 35.4 °F 24.8 °F 56% 30.07 in 10.0 mi NE 5.8 mph - N/A   Overcast
11:15 AM 39.6 °F 35.4 °F 23.7 °F 53% 30.07 in 10.0 mi NE 5.8 mph - N/A   Overcast
11:35 AM 40.1 °F 36.9 °F 22.8 °F 50% 30.06 in 10.0 mi NE 4.6 mph - N/A   Overcast
12:20 PM 39.6 °F 35.4 °F 22.1 °F 50% 30.05 in 10.0 mi NNE 5.8 mph - N/A   Overcast
12:35 PM 39.2 °F 35.0 °F 22.1 °F 50% 30.04 in 10.0 mi NNE 5.8 mph - N/A   Overcast
12:55 PM 39.2 °F 35.0 °F 22.3 °F 51% 30.03 in 10.0 mi NNE 5.8 mph - N/A   Overcast
1:15 PM 38.5 °F 32.7 °F 23.4 °F 55% 30.02 in 10.0 mi NNE 8.1 mph - N/A   Overcast
1:35 PM 38.3 °F 33.2 °F 23.7 °F 56% 30.01 in 10.0 mi NE 6.9 mph - N/A   Overcast
1:55 PM 38.7 °F 33.6 °F 23.2 °F 54% 30.01 in 10.0 mi NNE 6.9 mph - N/A   Overcast
2:15 PM 39.2 °F 34.2 °F 22.3 °F 51% 30.01 in 10.0 mi NE 6.9 mph - N/A   Overcast
2:35 PM 39.2 °F 33.0 °F 21.9 °F 50% 30.00 in 10.0 mi NE 9.2 mph - N/A   Overcast
2:55 PM 39.7 °F 34.3 °F 21.6 °F 48% 30.00 in 10.0 mi ENE 8.1 mph - N/A   Overcast
3:15 PM 40.1 °F 34.7 °F 21.2 °F 47% 30.00 in 10.0 mi ENE 8.1 mph - N/A   Overcast
3:35 PM 40.5 °F 35.8 °F 20.3 °F 45% 29.99 in 10.0 mi NNE 6.9 mph - N/A   Overcast
3:55 PM 40.3 °F 38.2 °F 21.0 °F 46% 30.00 in 10.0 mi ENE 3.5 mph - N/A   Overcast
4:15 PM 40.6 °F 37.5 °F 22.1 °F 48% 29.99 in 10.0 mi NNE 4.6 mph - N/A   Overcast
4:35 PM 40.5 °F - 22.1 °F 48% 29.99 in 10.0 mi Calm Calm - N/A   Mostly Cloudy
4:55 PM 40.1 °F 36.9 °F 23.2 °F 51% 30.00 in 10.0 mi ENE 4.6 mph - N/A   Scattered Clouds
5:15 PM 39.4 °F 37.2 °F 23.4 °F 53% 30.00 in 10.0 mi NNE 3.5 mph - N/A   Clear
5:35 PM 39.0 °F 35.7 °F 23.7 °F 54% 30.00 in 10.0 mi NNE 4.6 mph - N/A   Clear
5:55 PM 37.6 °F 34.0 °F 24.1 °F 58% 30.01 in 10.0 mi NNE 4.6 mph - N/A   Clear
6:15 PM 36.1 °F 33.5 °F 24.1 °F 62% 30.01 in 10.0 mi NNE 3.5 mph - N/A   Clear
6:35 PM 35.1 °F - 24.4 °F 65% 30.02 in 10.0 mi Calm Calm - N/A   Clear
6:55 PM 34.3 °F - 24.1 °F 66% 30.02 in 10.0 mi Calm Calm - N/A   Clear
7:15 PM 34.0 °F 29.8 °F 23.7 °F 66% 30.02 in 10.0 mi NE 4.6 mph - N/A   Clear
7:35 PM 32.4 °F - 23.9 °F 71% 30.03 in 10.0 mi Calm Calm - N/A   Clear
7:55 PM 32.0 °F - 23.9 °F 72% 30.03 in 10.0 mi Calm Calm - N/A   Clear
8:15 PM 30.0 °F - 24.6 °F 80% 30.03 in 10.0 mi Calm Calm - N/A   Clear
8:35 PM 30.2 °F - 24.3 °F 79% 30.03 in 10.0 mi Calm Calm - N/A   Clear
8:55 PM 28.9 °F - 24.4 °F 83% 30.03 in 10.0 mi Calm Calm - N/A   Clear
9:15 PM 29.3 °F 25.6 °F 23.9 °F 80% 30.04 in 10.0 mi NE 3.5 mph - N/A   Clear
9:35 PM 27.3 °F - 24.1 °F 88% 30.04 in 10.0 mi Calm Calm - N/A   Clear
9:55 PM 29.1 °F 24.1 °F 23.4 °F 79% 30.04 in 10.0 mi NE 4.6 mph - N/A   Clear
10:15 PM 29.5 °F - 23.5 °F 79% 30.04 in 10.0 mi Calm Calm - N/A   Clear
10:35 PM 28.0 °F 24.2 °F 23.5 °F 83% 30.03 in 10.0 mi NE 3.5 mph - N/A   Clear
10:55 PM 29.1 °F - 23.7 °F 80% 30.04 in 10.0 mi Calm Calm - N/A   Clear
11:15 PM 30.2 °F - 24.6 °F 80% 30.04 in 10.0 mi Calm Calm - N/A   Clear
11:35 PM 29.8 °F 23.9 °F 25.0 °F 82% 30.03 in 10.0 mi NE 5.8 mph - N/A   Clear
11:55 PM 29.3 °F 22.3 °F 25.5 °F 86% 30.02 in 10.0 mi NE 6.9 mph - N/A   Clear